When you browse on this site, cookies collect data to enhance your experience and personalize the content and advertising you see.
Visit our Privacy Policy to learn more. By continuing to use the site, you agree to this use of cookies and data.
  • In Österreich
  • Länderverzeichnis
  • Für 7 Tage
  • Wassertemperatur
  • Satellitenkarten
  • Wetterkarte
  • News
  • Widgets
  • user-avatar
    Anmelden

    Stündliche Wetter Wroclaw

    Heute, 21 Mai, Dienstag

    Zeit Temperatur Niederschläge Wind Luftdruck Luftfeuchtigkeit
    00:00 +12°C° 0 mm 3 m/S 742 mmHg 88%
    01:00 +12°C° 0 mm 3 m/S 742 mmHg 91%
    02:00 +12°C° 0 mm 2 m/S 742 mmHg 92%
    03:00 +12°C° 0 mm 2 m/S 742 mmHg 92%
    04:00 +12°C° 0 mm 2 m/S 743 mmHg 92%
    05:00 +13°C° 0 mm 1 m/S 743 mmHg 88%
    06:00 +14°C° 0 mm 1 m/S 743 mmHg 83%
    07:00 +16°C° 0 mm 1 m/S 743 mmHg 78%
    08:00 +18°C° 0 mm 1 m/S 743 mmHg 74%
    09:00 +19°C° 0 mm 1 m/S 743 mmHg 70%
    10:00 +21°C° 0 mm 1 m/S 743 mmHg 65%
    11:00 +21°C° 0 mm 1 m/S 743 mmHg 63%
    12:00 +22°C° 0 mm 1 m/S 743 mmHg 60%
    13:00 +22°C° 0 mm 1 m/S 742 mmHg 57%
    14:00 +23°C° 0 mm 1 m/S 742 mmHg 57%
    15:00 +23°C° 0 mm 2 m/S 742 mmHg 58%
    16:00 +23°C° 0 mm 2 m/S 741 mmHg 58%
    17:00 +21°C° 0 mm 2 m/S 741 mmHg 65%
    18:00 +20°C° 0 mm 2 m/S 741 mmHg 71%
    19:00 +18°C° 0 mm 2 m/S 741 mmHg 77%
    20:00 +17°C° 0.9 mm 2 m/S 741 mmHg 82%
    21:00 +17°C° 0.9 mm 3 m/S 741 mmHg 86%
    22:00 +16°C° 0.9 mm 3 m/S 742 mmHg 90%
    23:00 +14°C° 2.1 mm 4 m/S 742 mmHg 92%

    Morgen, 22 Mai, Mittwoch

    Zeit Temperatur Niederschläge Wind Luftdruck Luftfeuchtigkeit
    00:00 +14°C° 2.1 mm 4 m/S 742 mmHg 93%
    01:00 +14°C° 2.1 mm 5 m/S 742 mmHg 94%
    02:00 +14°C° 0.9 mm 5 m/S 742 mmHg 95%
    03:00 +14°C° 0.9 mm 5 m/S 742 mmHg 96%
    04:00 +14°C° 0.9 mm 5 m/S 742 mmHg 96%
    05:00 +14°C° 0.3 mm 6 m/S 742 mmHg 96%
    06:00 +14°C° 0.3 mm 6 m/S 742 mmHg 95%
    07:00 +14°C° 0.3 mm 6 m/S 743 mmHg 94%
    08:00 +15°C° 0.1 mm 7 m/S 743 mmHg 94%
    09:00 +15°C° 0.1 mm 7 m/S 743 mmHg 93%
    10:00 +15°C° 0.1 mm 7 m/S 744 mmHg 92%
    11:00 +15°C° 0.6 mm 7 m/S 744 mmHg 91%
    12:00 +16°C° 0.6 mm 7 m/S 744 mmHg 91%
    13:00 +16°C° 0.6 mm 7 m/S 744 mmHg 90%
    14:00 +16°C° 0.7 mm 8 m/S 745 mmHg 91%
    15:00 +15°C° 0.7 mm 8 m/S 745 mmHg 91%
    16:00 +15°C° 0.7 mm 8 m/S 745 mmHg 91%
    17:00 +15°C° 0.6 mm 8 m/S 746 mmHg 92%
    18:00 +13°C° 0.6 mm 8 m/S 746 mmHg 93%
    19:00 +13°C° 0.6 mm 8 m/S 746 mmHg 94%
    20:00 +13°C° 0.4 mm 8 m/S 747 mmHg 94%
    21:00 +13°C° 0.4 mm 8 m/S 747 mmHg 94%
    22:00 +12°C° 0.4 mm 8 m/S 747 mmHg 94%
    23:00 +12°C° 0.3 mm 7 m/S 748 mmHg 94%

    übermorgen, 23 Mai, Donnerstag

    Zeit Temperatur Niederschläge Wind Luftdruck Luftfeuchtigkeit
    00:00 +12°C° 0.3 mm 7 m/S 748 mmHg 94%
    01:00 +12°C° 0.3 mm 7 m/S 748 mmHg 95%
    02:00 +11°C° 0.3 mm 7 m/S 749 mmHg 94%
    03:00 +11°C° 0.3 mm 8 m/S 749 mmHg 94%
    04:00 +11°C° 0.3 mm 8 m/S 749 mmHg 94%
    05:00 +10°C° 0.2 mm 8 m/S 750 mmHg 94%
    06:00 +10°C° 0.2 mm 8 m/S 750 mmHg 93%
    07:00 +9°C° 0.2 mm 8 m/S 751 mmHg 93%
    08:00 +9°C° 0.1 mm 7 m/S 751 mmHg 92%
    09:00 +9°C° 0.1 mm 7 m/S 751 mmHg 92%
    10:00 +9°C° 0.1 mm 7 m/S 752 mmHg 91%
    11:00 +10°C° 0 mm 7 m/S 752 mmHg 86%
    12:00 +11°C° 0 mm 6 m/S 752 mmHg 82%
    13:00 +11°C° 0 mm 6 m/S 752 mmHg 77%
    14:00 +13°C° 0 mm 5 m/S 752 mmHg 73%
    15:00 +14°C° 0 mm 4 m/S 752 mmHg 69%
    16:00 +16°C° 0 mm 3 m/S 752 mmHg 64%
    17:00 +16°C° 0 mm 3 m/S 752 mmHg 68%
    18:00 +15°C° 0 mm 2 m/S 752 mmHg 71%
    19:00 +15°C° 0 mm 1 m/S 752 mmHg 75%
    20:00 +13°C° 0 mm 2 m/S 752 mmHg 77%
    21:00 +12°C° 0 mm 2 m/S 752 mmHg 80%
    22:00 +10°C° 0 mm 2 m/S 752 mmHg 83%
    23:00 +9°C° 0 mm 2 m/S 752 mmHg 84%

    24 Mai, Freitag

    Zeit Temperatur Niederschläge Wind Luftdruck Luftfeuchtigkeit
    00:00 +8°C° 0 mm 2 m/S 752 mmHg 86%
    01:00 +8°C° 0 mm 2 m/S 752 mmHg 88%
    02:00 +7°C° 0 mm 2 m/S 752 mmHg 89%
    03:00 +7°C° 0 mm 2 m/S 752 mmHg 90%
    04:00 +8°C° 0 mm 1 m/S 752 mmHg 90%
    05:00 +9°C° 0 mm 1 m/S 752 mmHg 85%
    06:00 +11°C° 0 mm 1 m/S 752 mmHg 80%
    07:00 +13°C° 0 mm 1 m/S 751 mmHg 75%
    08:00 +14°C° 0 mm 1 m/S 751 mmHg 70%
    09:00 +16°C° 0 mm 1 m/S 751 mmHg 64%
    10:00 +19°C° 0 mm 1 m/S 751 mmHg 59%
    11:00 +17°C° 0 mm 0 m/S 750 mmHg 58%
    12:00 +18°C° 0 mm 0 m/S 750 mmHg 56%
    13:00 +19°C° 0 mm 0 m/S 750 mmHg 55%
    14:00 +21°C° 0 mm 1 m/S 749 mmHg 54%
    15:00 +21°C° 0 mm 1 m/S 749 mmHg 54%
    16:00 +21°C° 0 mm 1 m/S 748 mmHg 54%
    17:00 +20°C° 0 mm 1 m/S 748 mmHg 60%
    18:00 +18°C° 0 mm 2 m/S 748 mmHg 66%
    19:00 +17°C° 0 mm 2 m/S 747 mmHg 72%
    20:00 +15°C° 0 mm 2 m/S 747 mmHg 74%
    21:00 +13°C° 0 mm 3 m/S 747 mmHg 76%
    22:00 +12°C° 0 mm 3 m/S 748 mmHg 78%
    23:00 +12°C° 0 mm 3 m/S 747 mmHg 78%

    25 Mai, Samstag

    Zeit Temperatur Niederschläge Wind Luftdruck Luftfeuchtigkeit
    00:00 +11°C° 0 mm 3 m/S 747 mmHg 78%
    01:00 +12°C° 0 mm 2 m/S 747 mmHg 79%
    02:00 +12°C° 0 mm 2 m/S 747 mmHg 80%
    03:00 +12°C° 0 mm 2 m/S 747 mmHg 81%
    04:00 +12°C° 0 mm 2 m/S 747 mmHg 82%
    05:00 +13°C° 0 mm 2 m/S 747 mmHg 79%
    06:00 +15°C° 0 mm 2 m/S 747 mmHg 77%
    07:00 +17°C° 0 mm 2 m/S 747 mmHg 74%
    08:00 +18°C° 0.1 mm 3 m/S 747 mmHg 71%
    09:00 +19°C° 0.1 mm 3 m/S 747 mmHg 68%
    10:00 +21°C° 0.1 mm 4 m/S 747 mmHg 66%
    11:00 +21°C° 0.4 mm 4 m/S 747 mmHg 64%
    12:00 +21°C° 0.4 mm 4 m/S 747 mmHg 63%
    13:00 +22°C° 0.4 mm 4 m/S 747 mmHg 62%
    14:00 +22°C° 0.6 mm 4 m/S 746 mmHg 64%
    15:00 +21°C° 0.6 mm 3 m/S 746 mmHg 65%
    16:00 +21°C° 0.6 mm 3 m/S 746 mmHg 67%
    17:00 +20°C° 0.5 mm 3 m/S 746 mmHg 73%
    18:00 +19°C° 0.5 mm 3 m/S 746 mmHg 78%
    19:00 +17°C° 0.5 mm 2 m/S 747 mmHg 83%
    20:00 +16°C° 0 mm 2 m/S 747 mmHg 85%
    21:00 +15°C° 0 mm 2 m/S 747 mmHg 87%
    22:00 +14°C° 0 mm 2 m/S 748 mmHg 89%
    23:00 +14°C° 0.1 mm 2 m/S 748 mmHg 91%

    26 Mai, Sonntag

    Zeit Temperatur Niederschläge Wind Luftdruck Luftfeuchtigkeit
    00:00 +13°C° 0.1 mm 2 m/S 748 mmHg 92%
    01:00 +13°C° 0.1 mm 2 m/S 748 mmHg 93%
    02:00 +13°C° 0.6 mm 2 m/S 748 mmHg 93%
    03:00 +12°C° 0.6 mm 1 m/S 748 mmHg 93%
    04:00 +12°C° 0.6 mm 1 m/S 748 mmHg 93%
    05:00 +13°C° 0 mm 1 m/S 748 mmHg 91%
    06:00 +14°C° 0 mm 2 m/S 748 mmHg 88%
    07:00 +15°C° 0 mm 2 m/S 748 mmHg 85%
    08:00 +16°C° 0.3 mm 3 m/S 748 mmHg 81%
    09:00 +17°C° 0.3 mm 4 m/S 748 mmHg 77%
    10:00 +17°C° 0.3 mm 5 m/S 748 mmHg 73%
    11:00 +19°C° 0.3 mm 6 m/S 748 mmHg 68%
    12:00 +18°C° 0.3 mm 7 m/S 748 mmHg 63%
    13:00 +20°C° 0.3 mm 8 m/S 748 mmHg 58%
    14:00 +18°C° 0 mm 8 m/S 748 mmHg 58%
    15:00 +18°C° 0 mm 7 m/S 748 mmHg 59%
    16:00 +17°C° 0 mm 7 m/S 748 mmHg 60%
    17:00 +16°C° 0 mm 5 m/S 748 mmHg 65%
    18:00 +15°C° 0 mm 4 m/S 748 mmHg 71%
    19:00 +13°C° 0 mm 3 m/S 748 mmHg 77%
    20:00 +13°C° 0 mm 2 m/S 748 mmHg 80%
    21:00 +12°C° 0 mm 1 m/S 749 mmHg 82%
    22:00 +10°C° 0 mm 1 m/S 749 mmHg 85%
    23:00 +10°C° 0 mm 1 m/S 749 mmHg 86%
    Mehr zeigen